Location: Manhattan
(39.1840°N, 96.5710°W)
Time: 23:17:13
(UTC-05:00)

ISS - Visible Passes

Search period start: 30 April 2017 00:00
Search period end: 10 May 2017 00:00
Orbit: 401 x 409 km, 51.6° (Epoch: 01 May)

Date Brightness Start Highest point End Pass type
(mag) Time Alt. Az. Time Alt. Az. Time Alt. Az.
02 May -1.0 05:44:35 10° SSE 05:46:00 12° SE 05:47:25 10° ESE visible
04 May -2.3 05:35:07 10° SSW 05:38:02 30° SE 05:40:58 10° ENE visible
05 May -1.5 04:44:52 13° SSE 04:46:06 16° SE 04:48:11 10° E visible
06 May -3.8 05:27:34 15° SW 05:30:10 83° SE 05:33:27 10° NE visible
07 May -3.0 04:37:31 36° SSE 04:38:06 39° SE 04:41:11 10° ENE visible
08 May -1.3 03:47:24 16° E 03:47:24 16° E 03:48:35 10° E visible
08 May -2.9 05:20:03 16° W 05:22:23 40° NNW 05:25:30 10° NE visible
09 May -3.9 04:29:50 66° W 04:30:11 76° NW 04:33:28 10° NE visible
